Regional Weather Roundup
Issued by NWS

Home | Current Version | Previous Version | Graphics & Text | Print | Product List | Glossary On
Versions: 1 2 3 4 5 6 7 8 9 10 11 12 13 14 15 16 17 18 19 20 21 22 23 24 25 26 27 28 29 30 31 32 33 34 35 36 37 38 39 40 41 42 43 44 45 46 47 48 49 50
000
ASUS43 KOAX 292002
RWRNE

WEATHER ROUNDUP FOR NEBRASKA
NATIONAL WEATHER SERVICE OMAHA NE
300 PM CDT WED MAR 29 2017

NOTES: SATELLITE DATA IS BEING USED TO AUGMENT CLOUD COVER ABOVE
       12000 FEET.
       "FAIR" INDICATES FEW OR NO CLOUDS BELOW 12,000 FEET WITH NO
       SIGNIFICANT WEATHER AND/OR OBSTRUCTIONS TO VISIBILITY.

  * THESE STATIONS DO NOT REPORT WEATHER SUCH AS RAIN...SNOW OR FOG.

NEZ001>004-019>022-054>056-292100-
NEBRASKA PANHANDLE

CITY           SKY/WX    TMP DP  RH WIND       PRES   REMARKS
SCOTTSBLUFF    PTSUNNY   56  37  49 N10       30.01F
ALLIANCE       CLOUDY    48  38  68 N12       30.01F
CHADRON        MOSUNNY   54  40  59 CALM      30.02F
KIMBALL        CLOUDY    50  39  66 N20       30.01F
SIDNEY         CLOUDY    47  38  71 N18       30.00F
$$

NEZ057>060-069>072-079>082-292100-
SOUTHWEST NEBRASKA

CITY           SKY/WX    TMP DP  RH WIND       PRES   REMARKS
NORTH PLATTE   CLOUDY    48  38  68 N23G31    29.95F
IMPERIAL       CLOUDY    46  39  76 N21       29.96F
LEXINGTON      LGT RAIN  44  41  88 N21G28    29.91F
MCCOOK         LGT RAIN  45  42  89 N24G31    29.91F
OGALLALA       CLOUDY    48  40  75 N15G22    29.99F
$$

NEZ005>010-023>029-035>040-094-292100-
NORTH CENTRAL NEBRASKA

CITY           SKY/WX    TMP DP  RH WIND       PRES   REMARKS
VALENTINE      CLOUDY    52  37  56 NE14      30.02F
AINSWORTH      CLOUDY    46  42  86 NE10      30.01F
BROKEN BOW     CLOUDY    45  39  79 NE16      29.94F
O`NEILL        CLOUDY    44  41  89 NE15      30.01F
ORD            LGT RAIN  44  39  82 NE20G29   29.95F
THEDFORD       CLOUDY    48  41  76 NE14      29.99F
$$

NEZ041-046>049-061>064-073>077-083>087-292100-
SOUTH CENTRAL NEBRASKA

CITY           SKY/WX    TMP DP  RH WIND       PRES   REMARKS
GRAND ISLAND   LGT RAIN  42  42 100 NE21G32   29.89F
AURORA         LGT RAIN  42  42  99 NE23      29.88F
HASTINGS       LGT RAIN  42  39  89 NE26G35   29.87F
HEBRON         MIX PCPN  44  42  92 NE20G28   29.81R
HOLDREGE       LGT RAIN  42  40  91 NE29G38   29.87F
KEARNEY *      CLOUDY    43  37  81 N25G32    29.89F
YORK           RAIN      43  43 100 NE24G30   29.87F
$$

NEZ011>018-030>034-042>045-292100-
NORTHEAST NEBRASKA

CITY           SKY/WX    TMP DP  RH WIND       PRES   REMARKS
NORFOLK        LGT RAIN  43  40  89 NE18G24   29.93F FOG
ALBION         LGT RAIN  44  40  86 NE17G25   29.94F
BLAIR          LGT RAIN  42  41  95 NE18G25   29.89F
FREMONT        LGT RAIN  42  41  97 NE12G21   29.92F
TEKAMAH        RAIN      43  39  86 NE21G28   29.93F FOG
WAYNE          LGT RAIN  44  44  99 NE20G26   29.96F
$$

NEZ050>053-065>068-078-088>093-292100-
SOUTHEAST NEBRASKA

CITY           SKY/WX    TMP DP  RH WIND       PRES   REMARKS
LINCOLN        LGT RAIN  45  42  89 NE23G30   29.87F FOG
OMAHA EPPLEY   RAIN      43  39  86 NE17      29.91F FOG
BEATRICE       CLOUDY    44  43  98 NE20G30   29.79F
FALLS CITY     LGT RAIN  47  46  97 NE12      29.75F FOG
NEBRASKA CITY  LGT RAIN  42  42 100 NE17G23   29.82F
PLATTSMOUTH    LGT RAIN  42  39  90 N20       29.85F
$$

NEZ044-045-051>053-067-292100-
OMAHA AREA

CITY           SKY/WX    TMP DP  RH WIND       PRES   REMARKS
OMAHA EPPLEY   RAIN      43  39  86 NE17      29.91F FOG
BLAIR          LGT RAIN  42  41  95 NE18G25   29.89F
FREMONT        LGT RAIN  42  41  97 NE12G21   29.92F
MILLARD        LGT RAIN  44  41  89 NE10G18   29.90F
OFFUTT AFB     LGT RAIN  42  40  90 NE16G24   29.87F FOG
PLATTSMOUTH    LGT RAIN  42  39  90 N20       29.85F
WAHOO          LGT RAIN  43  41  93 NE21G31   29.89F
$$



USA.gov is the U.S. government's official web portal to all federal, state and local government web resources and services.